Starlink 2266

operational
NORAD ID: 47997 Int'l Des: 2021-024 Owner: SPXS Country: US Constellation: starlink
LEOCIRCULARSTARLINK_TYPE

关于 Starlink 2266

正在加载描述...

实时位置

正在加载3D地球...

即将过境

高度历史

Altitude vs Time

uPlot chart will show altitude changes over time

两行轨道根数

1 47997U 21024W 25304.33722330 .00002836 00000-0 20918-3 0 9994
2 47997 53.0536 172.3052 0001529 91.8461 268.2703 15.06411759255410
Epoch: Oct 31, 2025 • Age: 14 hours

当前状态

高度 559.4 km
速度 7.58 km/s
星下点 -35.82°S, 123.27°E
发射日期 Mar 24, 2021
运行时间 4.6 years
类型 internet

技术详情

分类 Payload
质量 260.00 kg
干质量 248.00 kg
总质量 260.00 kg
长度 0.20 m
直径 2.80 m
跨度 9.00 m
形状 Box + pan
制造商 SPXS
平台类型 Starlink
阶段状态 In Orbit
所有者/国家 SPXS/US

大型星座

Loading constellations...